This is the latest recevied weather packets stored in our database for station/object AI5YA-13. If no packets are shown the sender has not sent any weather packets the latest 10 day(s).
| Time | Temp. | Humidity | Pressure | Rain* | Wind** | Luminosity | Snow |
|---|---|---|---|---|---|---|---|
| 1777285469 | 18.33° C | 27% | 1009.5 hPa | 0 mm | - | 0 W/m² | - |
| 1777285166 | 18.33° C | 27% | 1009.3 hPa | 0 mm | - | 0 W/m² | - |
| 1777284864 | 17.78° C | 27% | 1009.5 hPa | 0 mm | - | 0 W/m² | - |
| 1777284561 | 17.78° C | 27% | 1009.2 hPa | 0 mm | - | 0 W/m² | - |
| 1777284257 | 18.33° C | 27% | 1009.2 hPa | 0 mm | - | 0 W/m² | - |
| 1777283955 | 17.78° C | 27% | 1008.9 hPa | 0 mm | - | 0 W/m² | - |
| 1777283651 | 18.33° C | 27% | 1009.2 hPa | 0 mm | - | 0 W/m² | - |
| 1777283350 | 18.33° C | 27% | 1009 hPa | 0 mm | - | 0 W/m² | - |
| 1777283048 | 18.33° C | 27% | 1009.2 hPa | 0 mm | - | 0 W/m² | - |
| 1777282748 | 17.22° C | 28% | 1009 hPa | 0 mm | - | 0 W/m² | - |
| 1777282444 | 16.67° C | 29% | 1009.1 hPa | 0 mm | - | 0 W/m² | - |
| 1777282143 | 17.22° C | 28% | 1009.1 hPa | 0 mm | - | 0 W/m² | - |
| 1777281840 | 17.22° C | 28% | 1009.3 hPa | 0 mm | - | 0 W/m² | - |
| 1777281536 | 17.22° C | 28% | 1009.1 hPa | 0 mm | - | 0 W/m² | - |
| 1777281233 | 17.22° C | 28% | 1009 hPa | 0 mm | - | 0 W/m² | - |
| 1777280929 | 17.22° C | 28% | 1009 hPa | 0 mm | - | 0 W/m² | - |
| 1777280626 | 17.78° C | 28% | 1008.7 hPa | 0 mm | - | 0 W/m² | - |
| 1777280323 | 17.78° C | 27% | 1009.1 hPa | 0 mm | - | 0 W/m² | - |
| 1777280019 | 17.78° C | 27% | 1008.8 hPa | 0 mm | - | 0 W/m² | - |
| 1777279717 | 17.78° C | 27% | 1008.8 hPa | 0 mm | - | 0 W/m² | - |
| 1777279415 | 18.33° C | 27% | 1008.8 hPa | 0 mm | - | 0 W/m² | - |
| 1777279111 | 18.89° C | 26% | 1008.9 hPa | 0 mm | - | 0 W/m² | - |
| 1777278807 | 19.44° C | 25% | 1008.6 hPa | 0 mm | - | 0 W/m² | - |
| 1777278505 | 19.44° C | 25% | 1008.5 hPa | 0 mm | - | 0 W/m² | - |
| 1777278201 | 20° C | 25% | 1008.6 hPa | 0 mm | - | 0 W/m² | - |
* Rain latest hour (hover to see other rain measurements)
** Current wind speed in m/s (hover to see current wind gust speed)